VA3PPY Weather Reports


time (UTC)temp
F
wind
direction
speed
knots
gust
knots
rain 1hr
in
rain 24hr
in
rain mn
in
humidity
%
barometer
mb
20260902113058 76 162 0.0 3.5 0.00 0.00 0.00 91 1012.0
20260902111552 75 165 0.0 0.0 0.00 0.00 0.00 91 1011.9
20260902110052 75 165 0.0 0.0 0.00 0.00 0.00 91 1011.5
20260902104556 75 165 0.0 0.0 0.00 0.00 0.00 91 1011.4
20260902103102 75 165 0.0 0.0 0.00 0.00 0.00 90 1011.2
20260902101553 76 165 0.0 0.0 0.00 0.00 0.00 89 1010.9
20260902100107 76 165 0.0 1.7 0.00 0.00 0.00 89 1011.1
20260902094553 76 165 0.0 1.7 0.00 0.00 0.00 90 1011.1
20260902093053 75 165 0.0 2.6 0.00 0.00 0.00 91 1011.2
20260902091607 75 165 0.0 2.6 0.00 0.00 0.00 92 1011.2
20260902090053 75 161 0.0 1.7 0.00 0.00 0.00 92 1011.3
20260902084553 76 161 0.0 2.6 0.00 0.00 0.00 91 1011.2
20260902083053 76 161 0.0 4.3 0.00 0.00 0.00 92 1011.3
20260902081553 75 145 0.0 1.7 0.00 0.00 0.00 93 1011.1
20260902080106 75 145 0.9 2.6 0.00 0.00 0.00 93 1011.3
20260902074554 75 145 0.0 1.7 0.00 0.00 0.00 92 1011.2
20260902073103 75 145 0.0 3.5 0.00 0.00 0.00 92 1011.1
20260902071609 75 145 0.0 2.6 0.00 0.00 0.00 93 1011.3
20260902070053 75 145 0.0 1.7 0.00 0.00 0.00 93 1011.4
20260902064554 75 145 0.0 3.5 0.00 0.00 0.00 94 1011.5
20260902063057 75 145 0.9 2.6 0.00 0.00 0.00 95 1011.5
20260902061607 74 145 0.0 2.6 0.00 0.00 0.00 95 1011.7
20260902060055 74 145 0.0 1.7 0.00 0.00 0.00 95 1011.9
20260902054554 74 145 0.0 0.0 0.00 0.00 0.00 95 1012.0
20260902053055 74 145 0.0 0.9 0.00 0.00 0.00 95 1011.9
20260902051554 75 145 0.0 0.0 0.00 0.00 0.00 95 1011.9
20260902050054 75 145 0.0 1.7 0.00 0.00 0.00 95 1012.1
20260902044554 75 145 0.0 0.0 0.00 0.00 0.00 95 1012.0
20260902043056 76 145 0.0 2.6 0.00 0.00 0.00 94 1011.8
20260902041554 76 145 0.0 0.0 0.00 0.00 0.00 94 1011.7
20260902040057 77 145 0.0 2.6 0.00 0.00 0.00 94 1011.7
20260902034554 77 176 0.0 3.5 0.00 0.00 0.00 94 1011.6
20260902033054 77 176 0.0 3.5 0.00 0.00 0.00 94 1011.6
20260902031555 77 207 0.9 2.6 0.00 0.00 0.00 94 1011.7
20260902030054 77 324 0.0 0.9 0.00 0.00 0.00 95 1011.6
20260902024555 77 323 0.0 0.0 0.00 0.00 0.00 95 1011.7
20260902023059 77 324 0.0 0.0 0.00 0.00 0.00 95 1011.7
20260902021558 77 323 0.0 0.0 0.00 0.00 0.00 95 1011.7
20260902020054 77 324 0.0 0.0 0.00 0.00 0.00 95 1011.5
20260902014557 77 323 0.0 0.0 0.00 0.00 0.00 95 1011.5
20260902013055 77 324 0.0 0.0 0.00 0.00 0.00 95 1011.5
20260902011600 77 323 0.0 0.0 0.00 0.00 0.00 95 1011.3
20260902010118 77 323 0.0 0.0 0.00 0.00 0.00 94 1011.2
20260902004557 78 323 0.0 0.0 0.00 0.00 0.00 94 1011.2
20260902003055 78 324 0.0 0.0 0.00 0.00 0.00 93 1010.9
20260902001555 79 324 0.0 0.0 0.00 0.00 0.00 92 1011.1
20260902000055 79 323 0.0 0.0 0.00 0.00 0.00 90 1011.2
20260901234555 80 324 0.0 0.0 0.00 0.00 0.00 90 1011.3
20260901233101 81 323 0.0 0.0 0.00 0.00 0.00 89 1011.3
20260901231557 82 324 0.0 0.0 0.00 0.00 0.00 86 1011.4
20260901230055 83 323 0.0 0.0 0.00 0.00 0.00 84 1011.5
20260901224556 83 323 0.0 1.7 0.00 0.00 0.00 82 1011.5
20260901223057 84 323 0.0 0.0 0.00 0.00 0.00 83 1011.5
20260901221605 84 324 0.0 1.7 0.00 0.00 0.00 82 1011.5
20260901220055 84 323 0.0 1.7 0.00 0.00 0.00 82 1011.4
20260901214556 84 323 0.0 1.7 0.00 0.00 0.00 81 1011.4
20260901213100 83 324 0.9 1.7 0.00 0.00 0.00 82 1011.5
20260901211556 83 323 0.0 3.5 0.00 0.00 0.00 81 1011.7
20260901210056 82 324 0.0 3.5 0.00 0.00 0.00 81 1011.8
20260901204555 84 359 0.9 3.5 0.00 0.00 0.00 79 1011.7
20260901203102 84 14 0.0 2.6 0.00 0.00 0.00 79 1011.6
20260901201556 84 14 0.9 2.6 0.00 0.00 0.00 78 1011.7
20260901200106 83 14 1.7 3.5 0.00 0.00 0.00 79 1011.7
20260901194603 82 14 0.0 1.7 0.00 0.01 0.00 79 1011.7
20260901193102 81 14 0.0 2.6 0.00 0.01 0.00 82 1011.9
20260901191556 81 334 0.0 2.6 0.00 0.01 0.00 82 1012.3
20260901190112 80 58 0.9 4.3 0.00 0.01 0.00 83 1012.3
20260901184605 80 15 0.9 4.3 0.00 0.03 0.00 84 1012.6
20260901183057 78 319 0.0 3.5 0.00 0.03 0.00 85 1012.6
20260901181559 79 15 0.0 5.2 0.00 0.03 0.00 84 1012.6
20260901180100 80 300 0.9 3.5 0.00 0.03 0.00 83 1012.4
20260901174604 79 339 2.6 5.2 0.00 0.04 0.00 83 1012.5
20260901173059 77 323 0.0 3.5 0.00 0.04 0.00 86 1012.5
20260901171556 78 254 0.0 3.5 0.00 0.04 0.00 84 1012.6
20260901170156 79 317 0.9 3.5 0.00 0.04 0.00 83 1012.7
20260901164557 79 311 0.9 3.5 0.00 0.07 0.00 84 1012.8
20260901163103 79 297 0.9 2.6 0.00 0.07 0.00 84 1012.8
20260901161613 78 297 0.9 2.6 0.00 0.07 0.00 85 1012.9
20260901160057 78 297 0.0 2.6 0.00 0.07 0.00 85 1012.8
20260901154605 77 297 0.0 1.7 0.00 0.28 0.00 85 1012.9
20260901153122 78 297 0.0 3.5 0.00 0.28 0.00 85 1012.8
20260901151558 78 298 0.0 3.5 0.00 0.28 0.00 86 1012.7
20260901150058 77 331 0.0 1.7 0.00 0.28 0.00 87 1012.9
20260901144559 78 331 0.0 2.6 0.00 0.31 0.00 85 1012.8
20260901143059 77 331 0.0 3.5 0.00 0.31 0.00 86 1012.6
20260901141558 77 331 0.0 2.6 0.00 0.31 0.00 86 1012.5
20260901140058 77 293 0.9 2.6 0.00 0.31 0.00 87 1012.5
20260901134558 77 293 0.9 2.6 0.00 0.31 0.00 87 1012.5
20260901133058 77 293 0.0 2.6 0.00 0.31 0.00 86 1012.6
20260901131620 77 202 0.0 1.7 0.00 0.31 0.00 89 1012.5
20260901124602 75 139 0.0 1.7 0.00 0.32 0.00 91 1012.8
20260901123058 74 139 0.0 1.7 0.00 0.32 0.00 94 1012.8
20260901121558 73 139 0.0 0.0 0.00 0.32 0.00 95 1012.6
20260901120058 71 182 0.0 0.9 0.00 0.32 0.00 95 1012.6
20260901114558 71 182 0.0 0.0 0.00 0.37 0.00 94 1012.3